Hourly Data Report for May 10, 2012

All times are specified in Local Standard Time (LST). Add 1 hour to adjust for Daylight Saving Time where and when it is observed.

SAULT STE MARIE A
ONTARIO

46°29'06.000" N
84°30'35.000" W
192.00 m
6057591
71260
YAM

Download Data

Hourly Data (May 2012)
Hourly Data Report for May 10, 2012
Temp Definition
°C
Dew Point Temp Definition
°C
Rel Hum Definition
%
Wind Dir Definition
10's deg

Wind Spd Definition
km/h
Visibility Definition
km
Stn Press Definition
kPa
Hmdx Definition


Wind Chill Definition


Weather Definition


TIME
00:00 4.2 3.2 93 30 21 10.0 98.90     LegendNANA
01:00 3.9 3.2 95 30 17 10.0 98.90     Clear
02:00 4.4 3.2 92 30 23 10.0 98.90     LegendNANA
03:00 4.1 3.1 93 29 18 10.0 98.91     LegendNANA
04:00 3.8 3.2 96 30 19 10.0 98.95     Clear
05:00 3.7 3.1 96 30 20 10.0 98.99     LegendNANA
06:00 4.4 3.7 95 30 19 10.0 99.04     LegendNANA
07:00 5.5 4.0 90 30 20 10.0 99.09     Mainly Clear
08:00 6.8 4.1 83 30 18 10.0 99.14     LegendNANA
09:00 7.5 3.8 77 29 19 10.0 99.14     LegendNANA
10:00 9.7 2.6 61 30 22 10.0 99.15     Mainly Clear
11:00 11.1 0.6 48 29 20 10.0 99.14     LegendNANA
12:00 13.6 0.3 40 28 21 10.0 99.10     LegendNANA
13:00 13.9 -0.9 36 29 19 10.0 99.07     Mainly Clear
14:00 14.9 -1.2 33 29 17 10.0 99.06     LegendNANA
15:00 15.5 -0.2 34 29 22 10.0 99.04     LegendNANA
16:00 15.0 1.6 40 30 21 10.0 99.01     Mainly Clear
17:00 15.7 0.4 35 29 22 10.0 99.02     LegendNANA
18:00 15.9 -0.7 32 34 18 10.0 99.02     LegendNANA
19:00 14.5 -1.5 33 33 13 10.0 99.03     Clear
20:00 10.6 1.2 52 27 5 10.0 99.03     LegendNANA
21:00 4.8 0.2 72   0 10.0 99.08     LegendNANA
22:00 4.0 0.5 78   0 10.0 99.14     Clear
23:00 4.2 0.9 79   0 10.0 99.15     LegendNANA

Notes on Data Quality.

Legend

  • E = Estimated
  • M = Missing
  • NA = Not Available
Date modified: